www.pogodaiklimat.ru

Погода и климат >> Архив погоды >> Россия >> Архангельская область >> Зимнегорский Маяк


ПОГОДА в Зимнегорском Маяке

  • Прогноз погоды в Зимнегорском Маяке
  • Монитор погоды в Зимнегорском Маяке

АРХИВ ПОГОДЫ в Зимнегорском Маяке

Время (UTC), дата Ветер
(напр.,м/с)
 
Видим.   Явления Облачность Т
(С)
Тd
(С)
f
(%)
Тe
(С)
Тes
(С)
Комфортность P
(гПа)
Po
(гПа)
Тmin
(С)
Tmax
(С)
R
(мм)
R24
(мм)
S
(см)
09 14.04 З 4 н/о н/о -0.6 -1.9 91 -6 -6 1029.2 1019.3
12 14.04 Ю 3 20 км 10/6 600 м
[Sc Ac As]
+0.2 -1.8 86 -4 -4 1028.6 1018.8
15 14.04 З 7
{11}
н/о н/о 0.0 -1.3 91 -7 -7 1027.3 1017.4 +0.4
18 14.04 В 1 20 км 10/10 600 м
[Sc]
+0.2 -1.2 90 -2 -2 1026.4 1016.6
21 14.04 З 2
{11}
н/о н/о +0.7 -1.2 87 -3 -3 1025.3 1015.5
00 15.04 СЗ 4-10
{10}
20 км 10/10 600 м
[Sc]
+1.3 -1.3 83 -4 -4 1024.9 1015.1
03 15.04 СЗ 9-11
{12}
н/о н/о +1.0 -0.7 88 -7 -7 1023.9 1014.1 -0.0
06 15.04 С 3
{13}
20 км 10/0
[Ac und]
+0.3 -0.8 92 -4 -3 1024.8 1015.0
09 15.04 СЗ 8-11
{11}
н/о н/о +0.2 -0.5 95 -7 -7 1026.1 1016.2
12 15.04 СЗ 6
{12}
10 км 10/10 600 м
[Sc]
-0.1 -0.7 96 -7 -7 1026.9 1017.0
15 15.04 СЗ 8-10
{12}
н/о н/о +0.4 -1.1 90 -7 -7 1026.7 1016.9 +1.3
18 15.04 СЗ 9-12
{13}
10 км 10/10 600 м
[Sc]
+0.3 -1.1 90 -8 -8 1026.5 1016.7
21 15.04 СЗ 6
{12}
н/о н/о +0.5 -0.9 90 -6 -6 1027.0 1017.2
00 16.04 С 3 20 км 10/10 600 м
[Sc]
+0.5 -0.3 94 -4 -4 1028.2 1018.4
03 16.04 С 2
{12}
н/о н/о -0.1 -0.9 94 -4 -4 1030.6 1020.7 -0.3
06 16.04 С 4 20 км 10/10 600 м
[Sc]
0.0 -2.7 82 -5 -5 1032.9 1023.0
09 16.04 С 3 н/о н/о 0.0 -1.6 89 -5 -5 1035.5 1025.6
12 16.04 С 4 20 км 9/9 600 м
[Sc]
+0.9 -2.3 79 -4 -4 1036.8 1026.9
15 16.04 С 3 н/о н/о +0.1 -3.2 78 -4 -4 1036.9 1027.0 +1.8
18 16.04 В 2 20 км 9/9 600 м
[Sc]
-1.1 -3.9 81 -5 -5 1036.4 1026.4
21 16.04 В 1 н/о н/о -1.5 -4.8 78 -3 -3 1036.6 1026.6
00 17.04 Ю 3 20 км 10/0
[Ac und]
+0.1 -5.4 66 -4 -4 1035.3 1025.4
03 17.04 Ю 4 н/о н/о -0.2 -4.4 73 -5 -5 1034.6 1024.7 -1.8
06 17.04 Ю 3 20 км 10/10 600 м
[Sc]
+0.3 -3.0 78 -4 -4 1033.5 1023.6
09 17.04 Ю 4 н/о н/о +1.2 -2.7 75 -4 -4 1032.4 1022.5
12 17.04 Ю 4 20 км 10/5 600 м
[Sc Ac As]
+1.3 -3.2 72 -4 -3 1031.6 1021.7
15 17.04 ЮЗ 1 20 км 10/0 600 м
[Ac As]
+0.5 -2.5 80 -1 -1 1030.8 1020.9 +1.9
18 17.04 С 3 20 км 10/6 600 м
[Sc Ac As]
-0.6 -1.5 94 -6 -6 1030.7 1020.8
21 17.04 С 1 н/о н/о -1.4 -1.9 96 -4 -4 1030.8 1020.9
00 18.04 СЗ 4 20 км ясно 0.0 -3.0 80 -5 -5 1030.4 1020.5
03 18.04 СЗ 3 н/о н/о -0.2 -2.3 86 -5 -5 1030.2 1020.3 -1.9
06 18.04 СЗ 2 20 км 9/9
[Sc]
+0.1 -2.0 86 -4 -3 1031.0 1021.1
09 18.04 С 3 н/о н/о +1.1 -0.9 86 -3 -3 1032.3 1022.5
12 18.04 С 4 20 км 10/10 600 м
[Sc]
+2.1 -0.5 83 -3 -3 1032.6 1022.8
15 18.04 штиль 0 20 км 10/10 600 м
[Sc]
+1.4 -0.8 85 0 0 1032.2 1022.3 +2.1
18 18.04 С 2 20 км 10/10 600 м
[Sc]
+1.1 -1.8 81 -2 -2 1031.7 1021.8
21 18.04 Ю 1 н/о н/о 0.0 -2.1 86 -2 -2 1030.9 1021.0
00 19.04 Ю 4 20 км 8/0
[Ci sp]
+0.2 -1.8 86 -5 -5 1029.4 1019.5
03 19.04 Ю 6 н/о н/о +1.3 -2.1 78 -5 -5 1027.2 1017.4 -0.9
06 19.04 Ю 5
{11}
20 км 4/0
[Ac trans Ci fib]
+3.4 -1.9 68 -1 +1 1025.5 1015.8
09 19.04 Ю 4 н/о н/о +5.4 -3.0 55 +2 +2 1023.8 1014.2
12 19.04 СЗ 1 20 км 9/8 300 м
[Cu Sc Ac trans]
+3.2 -2.5 66 +2 +3 1023.6 1013.9
15 19.04 С 2 20 км 9/8 300 м
[Sc Ac cuf Ci fib]
+2.3 -2.3 72 -1 -0 1024.3 1014.6 +5.8
18 19.04 В 5 20 км 3/3 300 м
[Sc diur, vesp Ac cast]
+0.8 -2.1 81 -5 -5 1025.0 1015.2
21 19.04 В 5
{11}
н/о н/о +1.1 -2.4 77 -5 -5 1026.4 1016.6
00 20.04 СВ 3 20 км 3/0
[Ac trans]
-0.4 -2.5 86 -5 -5 1027.2 1017.4
03 20.04 В 2 н/о н/о -0.4 -2.2 88 -4 -4 1028.1 1018.3 -1.9
06 20.04 С 2 20 км 9/9 600 м
[Sc]
+0.4 -1.0 90 -3 -3 1028.7 1018.9
09 20.04 ЮЗ 2 н/о н/о +1.5 -0.1 89 -2 -2 1028.5 1018.7
12 20.04 ЮЗ 3 20 км 4/0
[Ci fib]
+2.0 +0.4 89 -2 +2 1028.4 1018.7
15 20.04 ЮЗ 4 20 км 10/0
[Cs]
+1.9 +0.3 89 -3 -2 1027.1 1017.4 +2.7
18 20.04 Ю 5 20 км 10/0
[Cs]
+2.3 -2.0 73 -3 -3 1026.1 1016.3
21 20.04 Ю 5 н/о н/о +2.8 -2.3 69 -2 -2 1024.8 1015.0
00 21.04 ЮЗ 7-10
{11}
20 км 9/0
[Ac trans]
+1.9 -1.8 76 -4 -4 1023.3 1013.5
03 21.04 ЮЗ 6-12
{14}
н/о н/о +1.9 -1.9 76 -4 -4 1022.4 1012.6 +1.5
06 21.04 ЮЗ 7-10
{12}
20 км 10/0
[Ac As]
+2.5 -1.7 74 -4 -3 1021.2 1011.5

 

Местоположение метеостанции Зимнегорский Маяк (Архангельская область, Россия): широта 65.46 долгота 39.73 высота над уровнем моря 77 м.

В архиве по умолчанию представлена погода в Зимнегорском Маяке за последнюю неделю. Архивные данные за месяц целиком и за предыдущие месяцы, начиная с января 2011 года, Вы можете получить, выбрав интересующий диапазон дат из раскрывающегося списка и нажав кнопку "Ввод!".


*Определитесь, кто Вы:
робот инопланетянин человек

Внимание! Время в таблицах - всемирное. Для получения местного времени необходимо прибавить поправку, которая равна 3 ч.

Смотрите также архив погоды в соседних городах и на ближайших метеорологических станциях:

Погода на Мудьюг Острове (Архангельская область, Россия) (73 км)
Погода в Пялице (Мурманская область, Россия) (81 км)
Погода в Унском Маяке (Архангельская область, Россия) (94 км)
Погода в Кепино (Архангельская область, Россия) (98 км)
Погода в Северодвинске (Архангельская область, Россия) (98 км)
Погода на Чаваньга реке (Мурманская область, Россия) (115 км)
Погода в Архангельске (Архангельская область, Россия) (117 км)
Погода на Сосновец Острове (Мурманская область, Россия) (121 км)
Погода в Жижгине (Архангельская область, Россия) (139 км)
Погода в Холмогорах (Архангельская область, Россия) (166 км)

Пояснения к столбцам:

Ветер - указаны скорость ветра в м/с - средняя за 10 мин, порывы в срок и между сроками (в фигурных скобках) и направление, откуда дует ветер: С - северный, СВ - северо-восточный, В - восточный, ЮВ - юго-восточный, Ю - южный, ЮЗ - юго-западный, З - западный, СЗ - северо-западный.
Видимость - горизонтальная дальность видимости в метрах или километрах. При видимости от 1 до 10 км при отсутствии осадков обычно наблюдается дымка, при ухудшении видимости до 1 км и менее - туман. В сухую погоду видимость может ухудшаться дымом, пылью или мглою.
Явления - указаны атмосферные явления, наблюдавшиеся в срок или в последний час перед сроком; фигурными скобками обозначены явления, наблюдавшиеся между сроками (за 1-3 часа до срока); квадратными скобками обозначены град или гололедные отложения с указанием их диаметра в мм.
Облачность - указаны через наклонную черту общая и нижняя облачность в баллах и высота нижней границы облаков в метрах; квадратными скобками обозначены формы облаков: Ci - перистые, Cs - перисто-слоистые, Cc - перисто-кучевые, Ac - высококучевые, As - высокослоистые, Sc - слоисто-кучевые, Ns - слоисто-дождевые, Cu - кучевые, Cb - кучево-дождевые. Подробнее классификацию облаков см. в Атласе облаков (PDF).
T - Температура воздуха - температура, измеренная на высоте 2 м над землей.
Td - Температура точки росы - температура, при понижении до которой содержащийся в воздухе водяной пар достигнет насыщения.
f - Относительная влажность воздуха - влажноcть воздуха, измеренная на высоте 2 м над землей.
Te - Эффективная температура - температура, которую ощущает одетый по сезону человек в тени. Характеристика душности погоды. При расчете учитывается влияние влажности воздуха и скорости ветра на теплоощущения человека.
Tes - Эффективная температура на солнце - температура, которую ощущает человек, с поправкой на солнечный нагрев. Характеристика знойности погоды. Зависит от высоты солнца над горизонтом, облачности и скорости ветра. Ночью, в пасмурную погоду, а также при ветре 12 м/с и более поправка равна нулю.
P - Атмосферное давление - приведенное к уровню моря атмосферное давление.
Po - Атмосферное давление - измеренное на уровне метеостанции атмосферное давление.
Tmin - Минимальная температура - минимум температуры воздуха на высоте 2 м над землей.
Tmax - Максимальная температура - максимум температуры воздуха на высоте 2 м над землей.
R - Количество осадков - Количество выпавших осадков за период времени, мм. При наведении курсора мыши на число - период времени, за который выпало указанное количество осадков.
R24 - Количество осадков - Количество выпавших осадков за 24 часа, мм.
S - Снежный покров - Высота снежного покрова, см. При наведении курсора мыши на число - состояние снежного покрова и степень покрытия местности в баллах.